Regional Weather Roundup
Issued by NWS

Home | Current Version | Previous Version | Text Only | Print | Product List | Glossary On
Versions: 1 2 3 4 5 6 7 8 9 10 11 12 13 14 15 16 17 18 19 20 21 22 23 24 25 26 27 28 29 30 31 32 33 34 35 36 37 38 39 40 41 42 43 44 45 46 47 48 49 50
000
ASUS43 KBIS 262010
RWRND

NORTH DAKOTA REGIONAL WEATHER ROUNDUP
NATIONAL WEATHER SERVICE BISMARCK ND
300 PM CDT THU MAY 26 2016

NOTE: "FAIR" INDICATES FEW OR NO CLOUDS BELOW 12,000 FEET WITH NO
SIGNIFICANT WEATHER AND/OR OBSTRUCTIONS TO VISIBILITY.


NDZ001>003-009>011-017-262100-
NORTHWEST NORTH DAKOTA

CITY           SKY/WX    TMP DP  RH WIND       PRES   REMARKS
WILLISTON      PTSUNNY   66  48  52 VRB6      29.79F
MINOT          PTSUNNY   68  54  60 N6        29.79S
MINOT AFB      PTSUNNY   63  54  72 NE5       29.79S
$$

NDZ018>021-031>035-040>046-262100-
SOUTHWEST NORTH DAKOTA

CITY           SKY/WX    TMP DP  RH WIND       PRES   REMARKS
BISMARCK       PTSUNNY   71  47  42 SW9       29.79F
DICKINSON      FAIR      63  40  42 NW8G18    29.81F
GARRISON         N/A     69  47  45 CALM      29.78F
HETTINGER ARPT CLOUDY    65  41  41 W14G22    29.85F
$$

NDZ004>008-012>016-024-026-027-054-262100-
NORTHEAST NORTH DAKOTA

CITY           SKY/WX    TMP DP  RH WIND       PRES   REMARKS
GRAND FORKS    CLOUDY    69  57  65 W13       29.74F
GRND FRKS AFB  PTSUNNY   68  56  65 W10G22    29.75S
DEVILS LAKE    PTSUNNY   65  55  70 W13       29.78S
$$

NDZ022-023-025-028>030-036>039-047>053-262100-
SOUTHEAST NORTH DAKOTA

CITY           SKY/WX    TMP DP  RH WIND       PRES   REMARKS
FARGO          FAIR      73  55  53 W17G24    29.79S
JAMESTOWN      FAIR      72  53  51 W14G24    29.79S
$$





USA.gov is the U.S. government's official web portal to all federal, state and local government web resources and services.